Tracking 28081 objects as of 26-Sep-2023
HD Live streaming from Space Station
objects crossing your sky now

SHAKUNTALA

Track SHAKUNTALA now!
10-day predictions


NORAD ID: 52173
Int'l Code: 2022-033S
Perigee: 408.8 km
Apogee: 418.6 km
Inclination: 97.4 °
Period: 92.7 minutes
Semi major axis: 6784 km
RCS: Unknown
Launch date: April 1, 2022
Source: India (IND)
Launch site: AIR FORCE EASTERN TEST RANGE (AFETR)
Your satellite tracking list
Your tracking list is empty




NASA's NSSDC Master Catalog

Two Line Element Set (TLE):
1 52173U 22033S   23269.02632880  .00105844  00000-0  16486-2 0  9998
2 52173  97.3542 354.7220 0007213 156.8940 203.2639 15.53484931 83053
Source of the keplerian elements: AFSPC